Find Starlink 3460

NORAD ID: 51755 Int'l Des: 2022-016 Owner: SPXS Country: US Constellation: starlink operational
LEOCIRCULAR

リアルタイム位置

3D地球を読み込み中...

Starlink 3460について

説明を読み込み中...

次回通過

Passes for default location (London). Set your location on the main map for personalized predictions.

高度履歴

Loading altitude history...

軌道要素

1 51755U 22016AT 26106.38412839 .00000496 00000-0 49233-4 0 9991
2 51755 53.2168 139.9040 0001329 79.1988 280.9154 15.08838693229398
Epoch: Apr 16, 2026 • Age: 27 hours

現在のステータス

高度 557.1 km
速度 7.58 km/s
衛星直下点 -48.05°S, 11.1°W
打ち上げ日 Feb 21, 2022
運用期間 4.1 years
タイプ internet

技術仕様

分類 Payload
質量 297.00 kg
乾燥質量 275.00 kg
総質量 297.00 kg
長さ 0.20 m
直径 2.80 m
スパン 9.00 m
形状 Box + pan
製造者 SPXS
バスタイプ Starlink
フェーズステータス In Orbit
所有者/国 SPXS/US

Most Searched